Schneifelwetter: Wetterstation Hallschlag, 537 m . NN
Wetterdaten: Donnerstag, 07.04.2011
Datum Zeit Temp. A. Feuchte A. Luftdruck Regen Wind Richtung Richtung Sonnenschein Helligkeit T Regen Taupunkt Windchill
07.04.2011 00:02 7,6 C 91 % 1025 hPa 0,0 l/m 0,0 km/h (0 Bft) NW 310 0 min 0 lux 0,00 min 6,2 C 7,6 C
07.04.2011 00:17 7,6 C 91 % 1025 hPa 0,0 l/m 0,0 km/h (0 Bft) NW 310 0 min 0 lux 0,00 min 6,2 C 7,6 C
07.04.2011 00:31 7,4 C 91 % 1025 hPa 0,0 l/m 0,0 km/h (0 Bft) NW 310 0 min 0 lux 0,00 min 6,0 C 7,4 C
07.04.2011 00:46 7,0 C 92 % 1026 hPa 0,0 l/m 0,0 km/h (0 Bft) NW 310 0 min 0 lux 0,00 min 5,8 C 7,0 C
07.04.2011 01:01 7,1 C 92 % 1025 hPa 0,0 l/m 0,0 km/h (0 Bft) NW 310 0 min 0 lux 0,00 min 5,9 C 7,1 C
07.04.2011 01:16 7,4 C 93 % 1025 hPa 0,0 l/m 0,0 km/h (0 Bft) NW 310 0 min 0 lux 0,00 min 6,3 C 7,4 C
07.04.2011 01:31 7,2 C 93 % 1025 hPa 0,0 l/m 0,0 km/h (0 Bft) NW 310 0 min 0 lux 0,00 min 6,1 C 7,2 C
07.04.2011 01:46 7,3 C 94 % 1025 hPa 0,0 l/m 0,0 km/h (0 Bft) NW 310 0 min 0 lux 0,00 min 6,4 C 7,3 C
07.04.2011 02:01 7,2 C 93 % 1025 hPa 0,0 l/m 0,0 km/h (0 Bft) NW 310 0 min 0 lux 0,00 min 6,1 C 7,2 C
07.04.2011 02:16 7,1 C 94 % 1025 hPa 0,0 l/m 0,1 km/h (0 Bft) NW 310 0 min 0 lux 0,00 min 6,2 C 7,1 C
07.04.2011 02:31 7,2 C 94 % 1025 hPa 0,0 l/m 0,4 km/h (0 Bft) NW 310 0 min 0 lux 0,00 min 6,3 C 7,2 C
07.04.2011 02:46 7,4 C 95 % 1025 hPa 0,0 l/m 4,9 km/h (1 Bft) NW 310 0 min 0 lux 0,00 min 6,7 C 7,4 C
07.04.2011 03:01 7,6 C 95 % 1024 hPa 0,0 l/m 8,0 km/h (2 Bft) NW 310 0 min 0 lux 0,00 min 6,9 C 6,3 C
07.04.2011 03:16 7,8 C 95 % 1024 hPa 0,0 l/m 7,4 km/h (2 Bft) W22.5 260 0 min 0 lux 0,00 min 7,0 C 7,0 C
07.04.2011 03:31 8,1 C 96 % 1024 hPa 0,0 l/m 8,0 km/h (2 Bft) W-SW22.5 245 0 min 0 lux 0,00 min 7,5 C 6,9 C
07.04.2011 03:47 8,2 C 96 % 1024 hPa 0,0 l/m 11,4 km/h (2 Bft) W-SW22.5 255 0 min 0 lux 0,00 min 7,6 C 4,8 C
07.04.2011 04:02 8,3 C 95 % 1024 hPa 0,0 l/m 10,0 km/h (2 Bft) W22.5 260 0 min 0 lux 0,00 min 7,5 C 5,7 C
07.04.2011 04:17 8,2 C 96 % 1024 hPa 0,0 l/m 9,2 km/h (2 Bft) W-SW 245 0 min 0 lux 0,00 min 7,6 C 6,1 C
07.04.2011 04:32 8,6 C 96 % 1024 hPa 0,0 l/m 13,8 km/h (3 Bft) W-SW 255 0 min 0 lux 0,00 min 8,0 C 4,0 C
07.04.2011 04:47 9,0 C 96 % 1024 hPa 0,0 l/m 16,5 km/h (3 Bft) W-SW22.5 255 0 min 0 lux 0,00 min 8,4 C 3,3 C
07.04.2011 05:02 8,8 C 96 % 1024 hPa 0,0 l/m 10,3 km/h (2 Bft) W-SW 250 0 min 0 lux 0,00 min 8,2 C 6,1 C
07.04.2011 05:17 8,9 C 96 % 1024 hPa 0,0 l/m 10,9 km/h (2 Bft) W-SW 245 0 min 0 lux 0,00 min 8,3 C 5,9 C
07.04.2011 05:32 8,7 C 96 % 1024 hPa 0,0 l/m 7,0 km/h (2 Bft) W-SW 245 0 min 0 lux 0,00 min 8,1 C 8,2 C
07.04.2011 05:47 8,5 C 96 % 1024 hPa 0,0 l/m 0,0 km/h (0 Bft) W-SW 240 0 min 0 lux 0,00 min 7,9 C 8,5 C
07.04.2011 06:02 7,9 C 96 % 1024 hPa 0,0 l/m 0,0 km/h (0 Bft) W-SW 245 0 min 0 lux 0,00 min 7,3 C 7,9 C
07.04.2011 06:17 7,9 C 96 % 1024 hPa 0,0 l/m 5,4 km/h (1 Bft) W-SW 245 0 min 0 lux 0,00 min 7,3 C 7,9 C
07.04.2011 06:32 8,0 C 97 % 1024 hPa 0,0 l/m 7,2 km/h (2 Bft) W-SW 245 0 min 0 lux 0,00 min 7,6 C 7,4 C
07.04.2011 06:47 8,1 C 97 % 1024 hPa 0,0 l/m 0,0 km/h (0 Bft) W-SW 245 0 min 68 lux 0,00 min 7,7 C 8,1 C
07.04.2011 07:02 7,9 C 96 % 1024 hPa 0,0 l/m 0,9 km/h (0 Bft) W-SW 245 0 min 548 lux 0,00 min 7,3 C 7,9 C
07.04.2011 07:17 7,8 C 97 % 1024 hPa 0,0 l/m 0,0 km/h (0 Bft) W-SW 245 0 min 3,33 klux 0,00 min 7,4 C 7,8 C
07.04.2011 07:32 7,8 C 97 % 1024 hPa 0,0 l/m 4,1 km/h (1 Bft) W-SW 245 0 min 9,6 klux 0,00 min 7,4 C 7,8 C
07.04.2011 07:47 8,0 C 97 % 1024 hPa 0,0 l/m 0,0 km/h (0 Bft) W-SW 245 0 min 12,2 klux 0,00 min 7,6 C 8,0 C
07.04.2011 08:02 8,6 C 97 % 1024 hPa 0,0 l/m 0,0 km/h (0 Bft) W-SW 240 0 min 15,9 klux 0,00 min 8,2 C 8,6 C
07.04.2011 08:17 9,2 C 97 % 1024 hPa 0,0 l/m 7,6 km/h (2 Bft) SW22.5 235 0 min 20,7 klux 0,00 min 8,7 C 8,3 C
07.04.2011 08:32 9,9 C 97 % 1023 hPa 0,0 l/m 16,5 km/h (3 Bft) W-SW22.5 245 0 min 25,5 klux 0,00 min 9,4 C 4,4 C
07.04.2011 08:46 10,7 C 98 % 1023 hPa 0,0 l/m 20,1 km/h (4 Bft) W-SW 255 0 min 29,5 klux 0,00 min 10,4 C 4,2 C
07.04.2011 09:02 11,6 C 97 % 1023 hPa 0,0 l/m 17,6 km/h (3 Bft) W22.5 260 0 min 33,3 klux 0,00 min 11,1 C 6,1 C
07.04.2011 09:17 12,4 C 96 % 1023 hPa 0,0 l/m 19,1 km/h (3 Bft) W-SW22.5 255 0 min 37,7 klux 0,00 min 11,8 C 6,7 C
07.04.2011 09:32 13,1 C 95 % 1023 hPa 0,0 l/m 19,5 km/h (3 Bft) W22.5 270 0 min 41,1 klux 0,00 min 12,3 C 7,4 C
07.04.2011 09:47 13,9 C 92 % 1023 hPa 0,0 l/m 24,7 km/h (4 Bft) W-SW22.5 255 0 min 44,1 klux 0,00 min 12,6 C 7,2 C
07.04.2011 10:02 14,8 C 89 % 1023 hPa 0,0 l/m 22,8 km/h (4 Bft) W22.5 260 0 min 48,2 klux 0,00 min 13,0 C 8,8 C
07.04.2011 10:17 15,5 C 81 % 1024 hPa 0,0 l/m 28,9 km/h (5 Bft) W45 265 0 min 50,3 klux 0,00 min 12,3 C 8,6 C
07.04.2011 10:31 16,2 C 80 % 1023 hPa 0,0 l/m 20,0 km/h (4 Bft) W45 270 14 min 53,6 klux 0,00 min 12,7 C 11,3 C
07.04.2011 10:47 16,6 C 75 % 1023 hPa 0,0 l/m 24,3 km/h (4 Bft) W22.5 265 16 min 57,7 klux 0,00 min 12,1 C 10,9 C
07.04.2011 11:02 16,6 C 67 % 1024 hPa 0,0 l/m 33,4 km/h (5 Bft) W45 275 15 min 59,0 klux 0,00 min 10,4 C 9,5 C
07.04.2011 11:17 16,7 C 65 % 1024 hPa 0,0 l/m 30,5 km/h (5 Bft) W45 275 15 min 61,0 klux 0,00 min 10,1 C 10,0 C
07.04.2011 11:32 16,5 C 64 % 1024 hPa 0,0 l/m 24,3 km/h (4 Bft) W45 280 15 min 61,3 klux 0,00 min 9,7 C 10,8 C
07.04.2011 11:47 16,8 C 61 % 1024 hPa 0,0 l/m 27,3 km/h (4 Bft) W22.5 260 15 min 63,0 klux 0,00 min 9,2 C 10,6 C
07.04.2011 12:01 16,8 C 60 % 1024 hPa 0,0 l/m 23,9 km/h (4 Bft) W22.5 275 14 min 64,9 klux 0,00 min 9,0 C 11,3 C
07.04.2011 12:17 17,0 C 59 % 1024 hPa 0,0 l/m 25,8 km/h (4 Bft) W45 270 16 min 66,1 klux 0,00 min 8,9 C 11,2 C
07.04.2011 12:32 17,0 C 57 % 1024 hPa 0,0 l/m 20,3 km/h (4 Bft) W45 275 15 min 68,3 klux 0,00 min 8,4 C 12,3 C
07.04.2011 12:47 17,1 C 56 % 1024 hPa 0,0 l/m 25,8 km/h (4 Bft) W45 275 15 min 70,8 klux 0,00 min 8,3 C 11,3 C
07.04.2011 13:02 17,2 C 56 % 1024 hPa 0,0 l/m 23,9 km/h (4 Bft) W22.5 270 15 min 72,6 klux 0,00 min 8,3 C 11,8 C
07.04.2011 13:17 17,3 C 49 % 1024 hPa 0,0 l/m 37,8 km/h (5 Bft) W22.5 270 15 min 73,5 klux 0,00 min 6,5 C 9,9 C
07.04.2011 13:32 17,3 C 52 % 1024 hPa 0,0 l/m 31,1 km/h (5 Bft) W-NW22.5 285 15 min 74,0 klux 0,00 min 7,3 C 10,8 C
07.04.2011 13:46 17,4 C 45 % 1024 hPa 0,0 l/m 32,4 km/h (5 Bft) W-NW45 290 14 min 74,6 klux 0,00 min 5,3 C 10,7 C
07.04.2011 14:02 17,6 C 46 % 1024 hPa 0,0 l/m 34,1 km/h (5 Bft) W45 275 16 min 76,3 klux 0,00 min 5,8 C 10,8 C
07.04.2011 14:17 17,6 C 45 % 1024 hPa 0,0 l/m 38,5 km/h (5 Bft) W45 275 15 min 74,8 klux 0,00 min 5,5 C 10,3 C
07.04.2011 14:32 17,7 C 47 % 1024 hPa 0,0 l/m 30,6 km/h (5 Bft) W45 275 15 min 75,4 klux 0,00 min 6,2 C 11,4 C
07.04.2011 14:47 17,8 C 45 % 1024 hPa 0,0 l/m 22,4 km/h (4 Bft) W-NW45 295 15 min 76,1 klux 0,00 min 5,7 C 12,9 C
07.04.2011 15:02 18,0 C 45 % 1023 hPa 0,0 l/m 34,4 km/h (5 Bft) W22.5 270 15 min 72,6 klux 0,00 min 5,9 C 11,3 C
07.04.2011 15:17 18,1 C 45 % 1023 hPa 0,0 l/m 34,0 km/h (5 Bft) W22.5 270 15 min 71,3 klux 0,00 min 6,0 C 11,5 C
07.04.2011 15:31 18,1 C 44 % 1023 hPa 0,0 l/m 37,1 km/h (5 Bft) W45 270 14 min 70,2 klux 0,00 min 5,7 C 11,2 C
07.04.2011 15:47 18,1 C 43 % 1023 hPa 0,0 l/m 47,8 km/h (6 Bft) W22.5 270 16 min 65,9 klux 0,00 min 5,3 C 10,3 C
07.04.2011 16:02 18,0 C 40 % 1023 hPa 0,0 l/m 33,9 km/h (5 Bft) W22.5 265 15 min 63,6 klux 0,00 min 4,2 C 11,4 C
07.04.2011 16:17 17,8 C 42 % 1023 hPa 0,0 l/m 36,3 km/h (5 Bft) W45 275 15 min 59,6 klux 0,00 min 4,7 C 10,8 C
07.04.2011 16:32 17,9 C 41 % 1023 hPa 0,0 l/m 35,5 km/h (5 Bft) W45 275 15 min 59,6 klux 0,00 min 4,5 C 11,1 C
07.04.2011 16:47 18,1 C 44 % 1023 hPa 0,0 l/m 25,6 km/h (4 Bft) W-NW45 290 15 min 58,0 klux 0,00 min 5,7 C 12,7 C
07.04.2011 17:01 18,2 C 44 % 1023 hPa 0,0 l/m 23,8 km/h (4 Bft) W45 270 0 min 51,9 klux 0,00 min 5,7 C 13,2 C
07.04.2011 17:17 17,8 C 44 % 1023 hPa 0,0 l/m 25,5 km/h (4 Bft) W-NW45 290 0 min 48,6 klux 0,00 min 5,4 C 12,3 C
07.04.2011 17:32 17,7 C 46 % 1023 hPa 0,0 l/m 26,4 km/h (4 Bft) W22.5 275 0 min 45,3 klux 0,00 min 5,9 C 12,0 C
07.04.2011 17:47 17,3 C 47 % 1023 hPa 0,0 l/m 32,7 km/h (5 Bft) W-NW45 285 0 min 42,6 klux 0,00 min 5,9 C 10,6 C
07.04.2011 18:02 17,2 C 48 % 1023 hPa 0,0 l/m 25,5 km/h (4 Bft) W22.5 275 0 min 39,3 klux 0,00 min 6,1 C 11,5 C
07.04.2011 18:17 17,0 C 51 % 1023 hPa 0,0 l/m 23,5 km/h (4 Bft) W45 275 0 min 32,7 klux 0,00 min 6,8 C 11,6 C
07.04.2011 18:31 16,6 C 53 % 1023 hPa 0,0 l/m 21,6 km/h (4 Bft) W-NW45 290 0 min 31,5 klux 0,00 min 7,0 C 11,5 C
07.04.2011 18:47 16,3 C 56 % 1023 hPa 0,0 l/m 36,1 km/h (5 Bft) NW45 305 0 min 31,5 klux 0,00 min 7,5 C 8,7 C
07.04.2011 19:02 15,8 C 58 % 1023 hPa 0,0 l/m 27,7 km/h (4 Bft) W-NW45 285 0 min 23,4 klux 0,00 min 7,6 C 9,2 C
07.04.2011 19:17 15,3 C 60 % 1023 hPa 0,0 l/m 23,0 km/h (4 Bft) W-NW45 290 0 min 7,64 klux 0,00 min 7,6 C 9,4 C
07.04.2011 19:32 14,9 C 63 % 1023 hPa 0,0 l/m 21,8 km/h (4 Bft) W-NW67.5 295 0 min 3,01 klux 0,00 min 7,9 C 9,2 C
07.04.2011 19:47 14,5 C 66 % 1023 hPa 0,0 l/m 24,7 km/h (4 Bft) W45 280 0 min 2,05 klux 0,00 min 8,2 C 8,0 C
07.04.2011 20:01 14,1 C 68 % 1023 hPa 0,0 l/m 21,5 km/h (4 Bft) W45 270 0 min 768 lux 0,00 min 8,3 C 8,2 C
07.04.2011 20:17 13,8 C 70 % 1023 hPa 0,0 l/m 14,8 km/h (3 Bft) W22.5 270 0 min 402 lux 0,00 min 8,4 C 9,8 C
07.04.2011 20:32 13,5 C 72 % 1023 hPa 0,0 l/m 14,6 km/h (3 Bft) W45 275 0 min 84 lux 0,00 min 8,6 C 9,5 C
07.04.2011 20:47 13,2 C 73 % 1024 hPa 0,0 l/m 30,2 km/h (5 Bft) W45 270 0 min 26 lux 0,00 min 8,5 C 5,1 C
07.04.2011 21:02 13,0 C 75 % 1024 hPa 0,0 l/m 16,1 km/h (3 Bft) W-NW22.5 290 0 min 0 lux 0,00 min 8,7 C 8,4 C
07.04.2011 21:17 12,8 C 76 % 1024 hPa 0,0 l/m 24,3 km/h (4 Bft) W45 280 0 min 0 lux 0,00 min 8,7 C 5,8 C
07.04.2011 21:31 12,5 C 77 % 1024 hPa 0,0 l/m 26,9 km/h (4 Bft) W-NW22.5 285 0 min 0 lux 0,00 min 8,6 C 4,8 C
07.04.2011 21:47 12,2 C 78 % 1024 hPa 0,0 l/m 34,9 km/h (5 Bft) NW45 310 0 min 0 lux 0,00 min 8,5 C 2,9 C
07.04.2011 22:02 12,0 C 78 % 1024 hPa 0,0 l/m 19,6 km/h (3 Bft) W22.5 275 0 min 0 lux 0,00 min 8,3 C 6,0 C
07.04.2011 22:17 11,6 C 79 % 1024 hPa 0,0 l/m 37,5 km/h (5 Bft) W-NW67.5 295 0 min 0 lux 0,00 min 8,1 C 1,6 C
07.04.2011 22:32 11,5 C 79 % 1024 hPa 0,0 l/m 26,6 km/h (4 Bft) W-NW45 300 0 min 0 lux 0,00 min 8,0 C 3,5 C
07.04.2011 22:47 11,2 C 79 % 1024 hPa 0,0 l/m 22,6 km/h (4 Bft) NW67.5 305 0 min 0 lux 0,00 min 7,7 C 4,1 C
07.04.2011 23:02 11,1 C 80 % 1024 hPa 0,0 l/m 22,6 km/h (4 Bft) W-NW22.5 295 0 min 0 lux 0,00 min 7,8 C 3,9 C
07.04.2011 23:16 11,0 C 81 % 1024 hPa 0,0 l/m 13,8 km/h (3 Bft) W45 270 0 min 0 lux 0,00 min 7,9 C 6,8 C
07.04.2011 23:32 10,7 C 83 % 1025 hPa 0,0 l/m 14,8 km/h (3 Bft) N-NW67.5 335 0 min 0 lux 0,00 min 7,9 C 6,1 C
07.04.2011 23:47 9,9 C 84 % 1025 hPa 0,0 l/m 19,8 km/h (3 Bft) NW45 315 0 min 0 lux 0,00 min 7,3 C 3,2 C
07.04.2011 23:56 9,4 C 84 % 1025 hPa 0,0 l/m 18,6 km/h (3 Bft) NW67.5 325 0 min 0 lux 0,00 min 6,8 C 3,0 C
_ Min-Zeit 00:46 16:02 08:32 - 00:02 - - - - - 16:02 22:17
Minimum _ 7,0 C 40 % 1023 hPa - 0,0 km/h (0 Bft) - - - - - 4,2 C 1,6 C
_ Max-Zeit 17:01 08:46 00:46 00:02 15:47 - - 10:47 14:02 00:02 10:02 17:01
Maximum _ 18,2 C 98 % 1026 hPa 0,0 l/m 47,8 km/h
W (6 Bft)
- - 16 min 76,3 klux 0,00 min 13,0 C 13,2 C
Durchschnitt _ 12,6 C 75 % 1024 hPa #0,0 l/m 18,5 km/h (3 Bft) W - #6:30 h 25,5 klux #0 min. 7,7 C 8,3 C